Bemidji, MN

7:09 AM CST on February 26, 2017 (GMT -0600)
Bemidji-Beltrami County

Weather History for KBJI - May, 2013

Change the Weather History Date:

Tuesday, May 28, 2013

  Actual Average Record
Temperature  
Mean Temperature 60 °F -  
Max Temperature 67 °F 70 °F 93 °F (2006)
Min Temperature 52 °F 47 °F 29 °F (1958)
Degree Days  
Heating Degree Days 6    
Growing Degree Days 10 (Base 50)    
Moisture  
Dew Point 51 °F    
Average Humidity 74    
Maximum Humidity 91    
Minimum Humidity 61    
Precipitation  
Precipitation 0.00 in - - ()
Sea Level Pressure  
Sea Level Pressure 29.73 in    
Wind  
Wind Speed 7 mph (SE)    
Max Wind Speed 14 mph    
Max Gust Speed 18 mph    
Visibility 8 miles    
Events      
Averages and records for this station are not official NWS values.
T = Trace of Precipitation, MM = Missing Value Source: NWS Daily Summary

Daily Weather History Graph

Daily Weather History Graph

Search for Another Location

Airport or City:

Trip Planner

Search our weather history database for the weather conditions in past years. The results will help you decide how hot, cold, wet, or windy it might be!

Date:

Astronomy

May. 28, 2013 Rise Set
Actual Time 5:29 AM CDT 9:05 PM CDT
Civil Twilight 4:50 AM CDT 9:44 PM CDT
Nautical Twilight 3:58 AM CDT 10:36 PM CDT
Astronomical Twilight 2:48 AM CDT 11:47 PM CDT
Moon No Moon Rise 9:25 AM CDT (5/28)
Length of Visible Light 16h 53m
Length of Day
15h 36m
Waning Gibbous, 82% of the Moon is Illuminated
May 28
Waning Gibbous
May 31
Last Quarter
Jun 8
New
Jun 16
First Quarter
Jun 23
Full

Hourly Weather History & Observations

Time (CDT) Temp. Dew Point Humidity Pressure Visibility Wind Dir Wind Speed Gust Speed Precip Events Conditions
12:12 AM 56.5 °F 46.6 °F 69% 29.83 in 10.0 mi SE 8.1 mph - N/A   Overcast
12:32 AM 56.3 °F 46.8 °F 70% 29.84 in 10.0 mi South 6.9 mph - N/A   Overcast
12:52 AM 56.5 °F 47.3 °F 71% 29.83 in 10.0 mi SE 6.9 mph - N/A   Overcast
1:12 AM 56.3 °F 47.3 °F 72% 29.83 in 7.0 mi SE 6.9 mph - N/A   Overcast
1:32 AM 55.8 °F 47.3 °F 73% 29.81 in 10.0 mi ESE 8.1 mph - N/A   Overcast
1:52 AM 54.5 °F 46.6 °F 75% 29.80 in 10.0 mi ESE 6.9 mph - N/A   Mostly Cloudy
2:12 AM 52.7 °F 45.9 °F 78% 29.80 in 10.0 mi SE 5.8 mph - N/A   Scattered Clouds
2:32 AM 52.2 °F 45.7 °F 79% 29.80 in 10.0 mi ESE 3.5 mph - N/A   Mostly Cloudy
2:52 AM 52.7 °F 46.2 °F 79% 29.80 in 10.0 mi SSE 3.5 mph - N/A   Overcast
3:12 AM 54.0 °F 46.4 °F 76% 29.80 in 10.0 mi Calm Calm - N/A   Overcast
3:32 AM 53.6 °F 46.4 °F 77% 29.80 in 10.0 mi Calm Calm - N/A   Overcast
3:52 AM 53.6 °F 46.6 °F 77% 29.79 in 10.0 mi ESE 4.6 mph - N/A   Overcast
4:12 AM 53.6 °F 46.8 °F 78% 29.78 in 10.0 mi ESE 5.8 mph - N/A   Overcast
4:32 AM 53.8 °F 47.3 °F 79% 29.77 in 10.0 mi SE 5.8 mph - N/A   Overcast
4:52 AM 53.8 °F 47.3 °F 79% 29.77 in 7.0 mi SE 4.6 mph - N/A   Overcast
5:12 AM 53.6 °F 47.5 °F 80% 29.77 in 10.0 mi SE 3.5 mph - N/A   Overcast
5:32 AM 53.6 °F 47.7 °F 80% 29.77 in 7.0 mi SE 3.5 mph - N/A   Overcast
5:52 AM 53.6 °F 48.2 °F 82% 29.77 in 7.0 mi SE 4.6 mph - N/A   Overcast
6:12 AM 54.0 °F 48.4 °F 81% 29.76 in 10.0 mi ESE 6.9 mph - N/A   Overcast
6:32 AM 54.0 °F 49.1 °F 84% 29.76 in 7.0 mi SE 6.9 mph - N/A   Overcast
6:52 AM 54.5 °F 49.3 °F 83% 29.75 in 7.0 mi SE 6.9 mph - N/A   Overcast
7:12 AM 54.7 °F 48.9 °F 81% 29.75 in 7.0 mi ESE 6.9 mph - N/A   Overcast
7:32 AM 54.7 °F 48.4 °F 79% 29.75 in 10.0 mi SE 6.9 mph - N/A   Overcast
7:52 AM 55.0 °F 48.9 °F 80% 29.74 in 10.0 mi SE 6.9 mph - N/A   Overcast
8:12 AM 55.4 °F 49.1 °F 79% 29.73 in 10.0 mi ESE 8.1 mph - N/A   Overcast
8:32 AM 55.9 °F 49.5 °F 79% 29.74 in 7.0 mi ESE 9.2 mph - N/A   Overcast
8:52 AM 56.3 °F 49.8 °F 79% 29.74 in 7.0 mi SE 9.2 mph - N/A   Overcast
9:12 AM 56.5 °F 49.8 °F 78% 29.74 in 7.0 mi SSE 8.1 mph - N/A   Overcast
9:32 AM 57.6 °F 50.2 °F 76% 29.74 in 10.0 mi SE 8.1 mph - N/A   Overcast
9:52 AM 58.1 °F 50.2 °F 75% 29.74 in 7.0 mi SE 4.6 mph - N/A   Overcast
10:12 AM 59.4 °F 50.7 °F 73% 29.73 in 7.0 mi SSE 6.9 mph - N/A   Overcast
10:32 AM 59.9 °F 50.9 °F 72% 29.74 in 10.0 mi SSE 6.9 mph - N/A   Overcast
10:52 AM 61.3 °F 51.4 °F 70% 29.73 in 7.0 mi SSE 9.2 mph - N/A   Overcast
11:12 AM 61.9 °F 52.0 °F 70% 29.74 in 7.0 mi South 10.4 mph - N/A   Overcast
11:32 AM 60.8 °F 51.3 °F 71% 29.74 in 7.0 mi SE 8.1 mph - N/A   Overcast
11:52 AM 61.7 °F 51.8 °F 70% 29.73 in 7.0 mi SE 8.1 mph - N/A   Overcast
12:12 PM 62.4 °F 51.8 °F 68% 29.73 in 10.0 mi East 9.2 mph - N/A   Overcast
12:32 PM 62.4 °F 51.6 °F 68% 29.73 in 10.0 mi SSE 6.9 mph - N/A   Overcast
12:51 PM 62.1 °F 51.6 °F 69% 29.73 in 7.0 mi SSE 5.8 mph - N/A   Overcast
1:12 PM 63.5 °F 52.3 °F 67% 29.73 in 7.0 mi SSE 8.1 mph - N/A   Overcast
1:32 PM 63.3 °F 52.2 °F 67% 29.73 in 10.0 mi SE 9.2 mph - N/A   Overcast
1:51 PM 64.2 °F 52.2 °F 65% 29.72 in 10.0 mi SE 8.1 mph - N/A   Overcast
2:12 PM 64.6 °F 52.9 °F 66% 29.72 in 10.0 mi SSE 9.2 mph - N/A   Overcast
2:32 PM 65.8 °F 52.5 °F 62% 29.70 in 7.0 mi ESE 11.5 mph 17.3 mph N/A   Overcast
2:52 PM 66.4 °F 52.7 °F 61% 29.70 in 7.0 mi SE 13.8 mph 18.4 mph N/A   Overcast
3:12 PM 65.7 °F 52.7 °F 63% 29.71 in 7.0 mi SSE 9.2 mph - N/A   Scattered Clouds
3:32 PM 65.5 °F 53.2 °F 65% 29.71 in 10.0 mi SSE 9.2 mph - N/A   Mostly Cloudy
3:52 PM 66.4 °F 53.4 °F 63% 29.71 in 10.0 mi South 6.9 mph 16.1 mph N/A   Overcast
4:12 PM 64.9 °F 53.1 °F 65% 29.71 in 10.0 mi South 9.2 mph - N/A   Overcast
4:32 PM 65.5 °F 53.6 °F 65% 29.71 in 7.0 mi South 9.2 mph - N/A   Overcast
4:52 PM 65.3 °F 53.6 °F 66% 29.71 in 10.0 mi South 8.1 mph - N/A   Overcast
5:12 PM 67.1 °F 53.8 °F 62% 29.69 in 7.0 mi South 10.4 mph 16.1 mph N/A   Overcast
5:32 PM 66.7 °F 53.4 °F 62% 29.69 in 10.0 mi SE 11.5 mph - N/A   Overcast
5:52 PM 64.9 °F 53.2 °F 66% 29.69 in 10.0 mi SE 10.4 mph - N/A   Overcast
6:12 PM 64.8 °F 53.1 °F 66% 29.69 in 10.0 mi SE 9.2 mph - N/A   Overcast
6:32 PM 64.2 °F 52.9 °F 67% 29.69 in 7.0 mi SE 10.4 mph - N/A   Overcast
6:52 PM 63.9 °F 53.2 °F 68% 29.69 in 7.0 mi SSE 8.1 mph - N/A   Overcast
7:12 PM 63.7 °F 53.4 °F 69% 29.70 in 7.0 mi SSE 8.1 mph - N/A   Overcast
7:32 PM 63.5 °F 53.8 °F 71% 29.69 in 7.0 mi SSE 8.1 mph - N/A   Overcast
7:52 PM 64.6 °F 54.0 °F 68% 29.68 in 7.0 mi SE 9.2 mph - N/A   Mostly Cloudy
8:12 PM 62.8 °F 53.6 °F 72% 29.68 in 7.0 mi SE 6.9 mph - N/A   Scattered Clouds
8:32 PM 61.3 °F 54.1 °F 77% 29.69 in 5.0 mi SSE 5.8 mph - N/A   Haze
8:52 PM 59.9 °F 54.0 °F 81% 29.69 in 7.0 mi South 4.6 mph - N/A   Scattered Clouds
9:12 PM 60.6 °F 54.5 °F 80% 29.68 in 10.0 mi SSE 5.8 mph - N/A   Overcast
9:32 PM 58.1 °F 53.2 °F 84% 29.68 in 10.0 mi SSE 6.9 mph - N/A   Scattered Clouds
9:52 PM 57.4 °F 53.4 °F 87% 29.68 in 7.0 mi SSE 8.1 mph - N/A   Clear
10:12 PM 57.2 °F 53.6 °F 88% 29.69 in 7.0 mi SSE 6.9 mph - N/A   Clear
10:32 PM 56.3 °F 53.1 °F 89% 29.69 in 7.0 mi SSE 5.8 mph - N/A   Clear
10:52 PM 56.1 °F 53.1 °F 89% 29.69 in 10.0 mi SSE 5.8 mph - N/A   Clear
11:12 PM 55.8 °F 53.2 °F 91% 29.69 in 10.0 mi South 5.8 mph - N/A   Clear
11:32 PM 56.5 °F 53.6 °F 90% 29.69 in 7.0 mi South 5.8 mph - N/A   Clear
11:51 PM 57.2 °F 53.6 °F 88% 29.69 in 10.0 mi South 6.9 mph - N/A   Scattered Clouds